Powrót do katalogu

STARLINK-11669

AktywnyŁącznośćVLEO
NORAD 63548·PAYLOAD·🇺🇸 United States

Wystrzelony Apr 13, 2025 z Cape Canaveral Space Force Station

Loading…

Następne Przeloty (najbliższe 24 godziny)

TLE

ŚwieżeSource: CelesTrak SupGP

Epoka: Sep 15, 2026, 02:32 UTC

1 63548C 25075A   26258.10604167  .00075904  00000+0  58909-3 0  2589
2 63548  43.0005  91.6275 0001758 278.0865  87.0590 15.70819053    16

Śledź STARLINK-11669 w czasie rzeczywistym z AllMySat

Download on the App Store